Hourly Data Report for October 06, 2017

All times are specified in Local Standard Time (LST). Add 1 hour to adjust for Daylight Saving Time where and when it is observed.

NAPPAN AUTO
NOVA SCOTIA

45°45'34.400" N
64°14'29.200" W
19.80 m
8203702
71311
XNP

Download Data

Hourly Data (October 2017)
Hourly Data Report for October 6, 2017
Temp Definition
°C
Dew Point Temp Definition
°C
Rel Hum Definition
%
Wind Dir Definition
10's deg

Wind Spd Definition
km/h
Visibility Definition
km
Stn Press Definition
kPa
Hmdx Definition


Wind Chill Definition


Weather Definition


TIME
00:00 11.5 9.4 87 18 14   101.07     LegendNANA
01:00 11.4 9.5 88 17 8   101.13     LegendNANA
02:00 12.2 9.9 86 18 10   101.06     LegendNANA
03:00 12.3 10.5 89 12 5   101.07     LegendNANA
04:00 12.1 10.6 91 17 5   101.08     LegendNANA
05:00 12.2 10.4 89 21 12   101.15     LegendNANA
06:00 12.0 8.8 81 22 5   101.21     LegendNANA
07:00 11.3 7.9 80 23 3   101.30     LegendNANA
08:00 11.8 8.4 80 20 4   101.36     LegendNANA
09:00 14.2 7.5 64 29 13   101.41     LegendNANA
10:00 15.7 8.2 61 27 12   101.43     LegendNANA
11:00 16.0 6.0 51 29 11   101.38     LegendNANA
12:00 16.4 5.7 49 27 10   101.36     LegendNANA
13:00 17.8 6.3 47 25 14   101.31     LegendNANA
14:00 17.7 5.6 45 25 16   101.29     LegendNANA
15:00 17.1 8.0 55 20 20   101.29     LegendNANA
16:00 14.9 7.9 63 25 19   101.37     LegendNANA
17:00 14.2 7.3 63 21 22   101.32     LegendNANA
18:00 12.8 8.8 77 23 17   101.38     LegendNANA
19:00 13.0 9.3 79 22 14   101.43     LegendNANA
20:00 12.1 8.8 80 17 10   101.47     LegendNANA
21:00 11.2 8.8 85 15 9   101.56     LegendNANA
22:00 10.2 8.4 89 16 8   101.63     LegendNANA
23:00 10.1 8.8 92 17 9   101.71     LegendNANA

Notes on Data Quality.

Legend

  • E = Estimated
  • M = Missing
  • NA = Not Available
  • ‡ = Partner data that is not subject to review by the National Climate Archives
Date modified: